START_TIME,STEP,MOV.,M6,t_acc.,M7,t_acc.,M19,t_acc.,H36,t_acc.
1979-07-27 06:00:26.380 ,0,1,0.,12.0,0.,12.0,0.,12.0,0.,12.0
1979-07-27 06:00:38.380 ,0,1,0.,12.0,0.,12.0,0.,12.0,0.,12.0
1979-07-27 06:00:50.380 ,3,1,0.,12.0,0.,12.0,0.,12.0,0.,12.0
1979-07-27 06:01:02.380 ,3,1,0.,12.0,0.,12.0,0.,12.0,0.,12.0
1979-07-27 06:01:14.380 ,7,1,0.,12.0,0.,12.0,0.,12.0,0.,12.0
1979-07-27 06:01:26.380 ,7,1,0.,12.0,0.,12.0,0.,12.0,0.,12.0
1979-07-27 06:01:38.380 ,4,1,0.,12.0,0.,12.0,0.,12.0,0.,12.0
1979-07-27 06:01:50.380 ,4,1,0.,12.0,0.,12.0,0.,12.0,0.,12.0
1979-07-27 06:02:02.380 ,0,1,0.,12.0,0.,12.0,0.,12.0,0.,12.0
1979-07-27 06:02:14.380 ,0,1,0.,12.0,0.,12.0,0.,12.0,0.,12.0
1979-07-27 06:02:26.380 ,3,1,0.,12.0,0.,12.0,0.,12.0,0.,12.0
1979-07-27 06:02:38.380 ,3,1,0.,12.0,0.,12.0,0.,12.0,0.,12.0
1979-07-27 06:02:50.380 ,7,1,0.,12.0,0.,12.0,0.,12.0,0.,12.0
1979-07-27 06:03:02.380 ,7,1,0.,12.0,0.,12.0,0.,12.0,0.,12.0
1979-07-27 06:03:14.380 ,4,1,0.,12.0,0.,12.0,0.,12.0,0.,12.0
1979-07-27 06:03:26.380 ,4,1,0.,12.0,0.,12.0,0.,12.0,0.,12.0
1979-07-27 06:03:38.380 ,0,1,0.,12.0,0.,12.0,0.,12.0,0.,12.0
1979-07-27 06:03:50.380 ,0,1,0.,12.0,0.,12.0,0.,12.0,0.,12.0
1979-07-27 06:04:02.380 ,3,1,0.,12.0,0.,12.0,0.,12.0,0.,12.0
1979-07-27 06:04:14.380 ,3,1,0.,12.0,0.,12.0,0.,12.0,0.,12.0
1979-07-27 06:04:26.380 ,7,1,0.,12.0,0.,12.0,0.,12.0,0.,12.0
1979-07-27 06:04:38.380 ,7,1,0.,12.0,0.,12.0,0.,12.0,0.,12.0
1979-07-27 06:04:50.380 ,4,1,0.,12.0,0.,12.0,0.,12.0,0.,12.0
1979-07-27 06:05:02.380 ,4,1,0.,12.0,0.,12.0,0.,12.0,0.,12.0
1979-07-27 06:05:14.380 ,0,1,0.,12.0,0.,12.0,0.,12.0,0.,12.0
1979-07-27 06:05:26.380 ,0,1,0.,12.0,0.,12.0,0.,12.0,0.,12.0
1979-07-27 06:05:38.380 ,0,0,0.,12.0,0.,12.0,0.,12.0,0.,12.0
1979-07-27 06:05:50.380 ,0,0,0.,12.0,0.,12.0,0.,12.0,0.,12.0
1979-07-27 06:06:02.380 ,0,0,0.,12.0,0.,12.0,0.,12.0,0.,12.0
1979-07-27 06:06:14.380 ,0,0,0.,12.0,0.,12.0,0.,12.0,0.,12.0
1979-07-27 06:06:26.380 ,5,1,0.,12.0,0.,12.0,0.,12.0,0.,12.0
1979-07-27 06:06:38.380 ,5,1,0.,12.0,0.,12.0,0.,12.0,0.,12.0
1979-07-27 06:06:50.380 ,5,0,0.,12.0,0.,12.0,0.,12.0,0.,12.0
1979-07-27 06:07:02.380 ,5,0,0.,12.0,0.,12.0,0.,12.0,0.,12.0
1979-07-27 06:07:14.380 ,4,1,0.,12.0,0.,12.0,0.,12.0,0.,12.0
1979-07-27 06:07:26.380 ,4,1,0.,12.0,0.,12.0,0.,12.0,0.,12.0
1979-07-27 06:07:38.380 ,4,0,0.,12.0,0.,12.0,0.,12.0,0.,12.0
1979-07-27 06:07:50.380 ,4,0,0.,12.0,0.,12.0,0.,12.0,0.,12.0
1979-07-27 06:08:02.380 ,3,1,0.,12.0,0.,12.0,0.,12.0,0.,12.0
1979-07-27 06:08:14.380 ,3,1,0.,12.0,0.,12.0,0.,12.0,0.,12.0
1979-07-27 06:08:26.380 ,3,0,0.,12.0,0.,12.0,0.,12.0,0.,12.0
1979-07-27 06:08:38.380 ,3,0,0.,12.0,0.,12.0,0.,12.0,0.,12.0
1979-07-27 06:08:50.380 ,2,1,0.,12.0,0.,12.0,0.,12.0,0.,12.0
1979-07-27 06:09:02.380 ,2,1,0.,12.0,0.,12.0,0.,12.0,0.,12.0
1979-07-27 06:09:14.380 ,2,0,0.,12.0,0.,12.0,0.,12.0,0.,12.0
1979-07-27 06:09:26.380 ,2,0,0.,12.0,0.,12.0,0.,12.0,0.,12.0
1979-07-27 06:09:38.380 ,1,1,0.,12.0,0.,12.0,0.,12.0,0.,12.0
1979-07-27 06:09:50.380 ,1,1,0.,12.0,0.,12.0,0.,12.0,0.,12.0
1979-07-27 06:10:02.380 ,1,0,0.,12.0,0.,12.0,0.,12.0,0.,12.0
1979-07-27 06:10:14.380 ,1,0,0.,12.0,0.,12.0,0.,12.0,0.,12.0
1979-07-27 06:10:26.380 ,0,1,0.,12.0,0.,12.0,0.,12.0,0.,12.0
1979-07-27 06:10:38.380 ,0,1,0.,12.0,0.,12.0,0.,12.0,0.,12.0
1979-07-27 06:10:50.380 ,0,0,0.,12.0,0.,12.0,0.,12.0,0.,12.0
1979-07-27 06:11:02.380 ,0,0,0.,12.0,0.,12.0,0.,12.0,0.,12.0
1979-07-27 06:11:14.380 ,0,1,0.,12.0,0.,12.0,0.,12.0,0.,12.0
1979-07-27 06:11:26.380 ,0,1,0.,12.0,0.,12.0,0.,12.0,0.,12.0
1979-07-27 06:11:38.380 ,0,0,0.,12.0,0.,12.0,0.,12.0,0.,12.0
1979-07-27 06:11:50.380 ,0,0,0.,12.0,0.,12.0,0.,12.0,0.,12.0
1979-07-27 06:12:02.380 ,1,1,0.,12.0,0.,12.0,0.,12.0,0.,12.0
1979-07-27 06:12:14.380 ,1,1,0.,12.0,0.,12.0,0.,12.0,0.,12.0
1979-07-27 06:12:26.380 ,1,0,0.,12.0,0.,12.0,0.,12.0,0.,12.0
1979-07-27 06:12:38.380 ,1,0,0.,12.0,0.,12.0,0.,12.0,0.,12.0
1979-07-27 06:12:50.380 ,2,1,0.,12.0,0.,12.0,0.,12.0,0.,12.0
1979-07-27 06:13:02.380 ,2,1,0.,12.0,0.,12.0,0.,12.0,0.,12.0
1979-07-27 06:13:14.380 ,2,0,0.,12.0,0.,12.0,0.,12.0,0.,12.0
1979-07-27 06:13:26.380 ,2,0,0.,12.0,0.,12.0,0.,12.0,0.,12.0
1979-07-27 06:13:38.380 ,3,1,0.,12.0,0.,12.0,0.,12.0,0.,12.0
1979-07-27 06:13:50.380 ,3,1,0.,12.0,0.,12.0,0.,12.0,0.,12.0
1979-07-27 06:14:02.380 ,3,0,0.,12.0,0.,12.0,0.,12.0,0.,12.0
1979-07-27 06:14:14.380 ,3,0,0.,12.0,0.,12.0,0.,12.0,0.,12.0
1979-07-27 06:14:26.380 ,4,1,0.,12.0,0.,12.0,0.,12.0,0.,12.0
1979-07-27 06:14:38.380 ,4,1,0.,12.0,0.,12.0,0.,12.0,0.,12.0
1979-07-27 06:14:50.380 ,4,0,0.,12.0,0.,12.0,0.,12.0,0.,12.0
1979-07-27 06:15:02.380 ,4,0,0.,12.0,0.,12.0,0.,12.0,0.,12.0
1979-07-27 06:15:14.380 ,5,1,0.,12.0,0.,12.0,0.,12.0,0.,12.0
1979-07-27 06:15:26.380 ,5,1,0.,12.0,0.,12.0,0.,12.0,0.,12.0
1979-07-27 06:15:38.380 ,5,0,0.,12.0,0.,12.0,0.,12.0,0.,12.0
1979-07-27 06:15:50.380 ,5,0,0.,12.0,0.,12.0,0.,12.0,0.,12.0
1979-07-27 06:16:02.380 ,6,1,0.,12.0,0.,12.0,0.,12.0,0.,12.0
1979-07-27 06:16:14.380 ,6,1,0.,12.0,0.,12.0,0.,12.0,0.,12.0
1979-07-27 06:16:26.380 ,6,0,0.,12.0,0.,12.0,0.,12.0,0.,12.0
1979-07-27 06:16:38.380 ,6,0,0.,12.0,0.,12.0,0.,12.0,0.,12.0
1979-07-27 06:16:50.380 ,7,1,0.,12.0,0.,12.0,0.,12.0,0.,12.0
1979-07-27 06:17:02.380 ,7,1,0.,12.0,0.,12.0,0.,12.0,0.,12.0
1979-07-27 06:17:14.380 ,7,0,0.,12.0,0.,12.0,0.,12.0,0.,12.0
1979-07-27 06:17:26.380 ,7,0,0.,12.0,0.,12.0,0.,12.0,0.,12.0
1979-07-27 06:17:38.380 ,7,1,0.,12.0,0.,12.0,0.,12.0,0.,12.0
1979-07-27 06:17:50.380 ,7,1,0.,12.0,0.,12.0,0.,12.0,0.,12.0
1979-07-27 06:18:02.380 ,7,0,0.,12.0,0.,12.0,0.,12.0,0.,12.0
1979-07-27 06:18:14.380 ,7,0,0.,12.0,0.,12.0,0.,12.0,0.,12.0
1979-07-27 06:18:26.380 ,6,1,0.,12.0,0.,12.0,0.,12.0,0.,12.0
1979-07-27 06:18:38.380 ,6,1,0.,12.0,0.,12.0,0.,12.0,0.,12.0
1979-07-27 06:18:50.380 ,6,0,0.,12.0,0.,12.0,0.,12.0,0.,12.0
1979-07-27 06:19:02.380 ,6,0,0.,12.0,0.,12.0,0.,12.0,0.,12.0
1979-07-27 06:19:14.380 ,5,1,0.,12.0,0.,12.0,0.,12.0,0.,12.0
1979-07-27 06:19:26.380 ,5,1,0.,12.0,0.,12.0,0.,12.0,0.,12.0
1979-07-27 06:19:38.380 ,5,0,0.,12.0,0.,12.0,0.,12.0,0.,12.0
1979-07-27 06:19:50.380 ,5,0,0.,12.0,0.,12.0,0.,12.0,0.,12.0
1979-07-27 06:20:02.380 ,4,1,0.,12.0,0.,12.0,0.,12.0,0.,12.0
1979-07-27 06:20:14.380 ,4,1,0.,12.0,0.,12.0,0.,12.0,0.,12.0
1979-07-27 06:20:26.380 ,4,0,0.,12.0,0.,12.0,0.,12.0,0.,12.0
1979-07-27 06:20:38.380 ,4,0,0.,12.0,0.,12.0,0.,12.0,0.,12.0
1979-07-27 06:20:50.380 ,3,1,0.,12.0,0.,12.0,0.,12.0,0.,12.0
1979-07-27 06:21:02.380 ,3,1,0.,12.0,0.,12.0,0.,12.0,0.,12.0
1979-07-27 06:21:14.380 ,3,0,0.,12.0,0.,12.0,0.,12.0,0.,12.0
1979-07-27 06:21:26.380 ,3,0,0.,12.0,0.,12.0,0.,12.0,0.,12.0
1979-07-27 06:21:38.380 ,2,1,0.,12.0,0.,12.0,0.,12.0,0.,12.0
1979-07-27 06:21:50.380 ,2,1,0.,12.0,0.,12.0,0.,12.0,0.,12.0
1979-07-27 06:22:02.380 ,2,0,0.,12.0,0.,12.0,0.,12.0,0.,12.0
1979-07-27 06:22:14.380 ,2,0,0.,12.0,0.,12.0,0.,12.0,0.,12.0
1979-07-27 06:22:26.380 ,1,1,0.,12.0,0.,12.0,0.,12.0,0.,12.0
1979-07-27 06:22:38.380 ,1,1,0.,12.0,0.,12.0,0.,12.0,0.,12.0
1979-07-27 06:22:50.380 ,1,0,0.,12.0,0.,12.0,0.,12.0,0.,12.0
1979-07-27 06:23:02.380 ,1,0,0.,12.0,0.,12.0,0.,12.0,0.,12.0
1979-07-27 06:23:14.380 ,0,1,0.,12.0,0.,12.0,0.,12.0,0.,12.0
1979-07-27 06:23:26.380 ,0,1,0.,12.0,0.,12.0,0.,12.0,0.,12.0
1979-07-27 06:23:38.380 ,0,0,0.,12.0,0.,12.0,0.,12.0,0.,12.0
1979-07-27 06:23:50.380 ,0,0,0.,12.0,0.,12.0,0.,12.0,0.,12.0
1979-07-27 06:24:02.380 ,0,1,0.,12.0,0.,12.0,0.,12.0,0.,12.0
1979-07-27 06:24:14.380 ,0,1,0.,12.0,0.,12.0,0.,12.0,0.,12.0
1979-07-27 06:24:26.380 ,0,0,0.,12.0,0.,12.0,0.,12.0,0.,12.0
1979-07-27 06:24:38.380 ,0,0,0.,12.0,0.,12.0,0.,12.0,0.,12.0
1979-07-27 06:24:50.380 ,1,1,0.,12.0,0.,12.0,0.,12.0,0.,12.0
1979-07-27 06:25:02.380 ,1,1,0.,12.0,0.,12.0,0.,12.0,0.,12.0
1979-07-27 06:25:14.380 ,1,0,0.,12.0,0.,12.0,0.,12.0,0.,12.0
1979-07-27 06:25:26.380 ,1,0,0.,12.0,0.,12.0,0.,12.0,0.,12.0
1979-07-27 06:25:38.380 ,2,1,0.,12.0,0.,12.0,0.,12.0,0.,12.0
1979-07-27 06:25:50.380 ,2,1,0.,12.0,0.,12.0,0.,12.0,0.,12.0
1979-07-27 06:26:02.380 ,2,0,0.,12.0,0.,12.0,0.,12.0,0.,12.0
1979-07-27 06:26:14.380 ,2,0,0.,12.0,0.,12.0,0.,12.0,0.,12.0
1979-07-27 06:26:26.380 ,3,1,0.,12.0,0.,12.0,0.,12.0,0.,12.0
1979-07-27 06:26:38.380 ,3,1,0.,12.0,0.,12.0,0.,12.0,0.,12.0
1979-07-27 06:26:50.380 ,3,0,0.,12.0,0.,12.0,0.,12.0,0.,12.0
1979-07-27 06:27:02.380 ,3,0,0.,12.0,0.,12.0,0.,12.0,0.,12.0
1979-07-27 06:27:14.380 ,4,1,0.,12.0,0.,12.0,0.,12.0,0.,12.0
1979-07-27 06:27:26.380 ,4,1,0.,12.0,0.,12.0,0.,12.0,0.,12.0
1979-07-27 06:27:38.380 ,4,0,0.,12.0,0.,12.0,0.,12.0,0.,12.0
1979-07-27 06:27:50.380 ,4,0,0.,12.0,0.,12.0,0.,12.0,0.,12.0
1979-07-27 06:28:02.380 ,5,1,0.,12.0,0.,12.0,0.,12.0,0.,12.0
1979-07-27 06:28:14.380 ,5,1,0.,12.0,0.,12.0,0.,12.0,0.,12.0
1979-07-27 06:28:26.380 ,5,0,0.,12.0,0.,12.0,0.,12.0,0.,12.0
1979-07-27 06:28:38.380 ,5,0,0.,12.0,0.,12.0,0.,12.0,0.,12.0
1979-07-27 06:28:50.380 ,6,1,0.,12.0,0.,12.0,0.,12.0,0.,12.0
1979-07-27 06:29:02.380 ,6,1,0.,12.0,0.,12.0,0.,12.0,0.,12.0
1979-07-27 06:29:14.380 ,6,0,0.,12.0,0.,12.0,0.,12.0,0.,12.0
1979-07-27 06:29:26.380 ,6,0,0.,12.0,0.,12.0,0.,12.0,0.,12.0
1979-07-27 06:29:38.380 ,7,1,0.,12.0,0.,12.0,0.,12.0,0.,12.0
1979-07-27 06:29:50.380 ,7,1,0.,12.0,0.,12.0,0.,12.0,0.,12.0
1979-07-27 06:30:02.380 ,7,0,0.,12.0,0.,12.0,0.,12.0,0.,12.0
1979-07-27 06:30:14.380 ,7,0,0.,12.0,0.,12.0,0.,12.0,0.,12.0
1979-07-27 06:30:26.380 ,7,1,0.,12.0,0.,12.0,0.,12.0,0.,12.0
1979-07-27 06:30:38.380 ,7,1,0.,12.0,0.,12.0,0.,12.0,0.,12.0
1979-07-27 06:30:50.380 ,7,0,0.,12.0,0.,12.0,0.,12.0,0.,12.0
1979-07-27 06:31:02.380 ,7,0,0.,12.0,0.,12.0,0.,12.0,0.,12.0
1979-07-27 06:31:14.380 ,6,1,0.,12.0,0.,12.0,0.,12.0,0.,12.0
1979-07-27 06:31:26.380 ,6,1,0.,12.0,0.,12.0,0.,12.0,0.,12.0
1979-07-27 06:31:38.380 ,6,0,0.,12.0,0.,12.0,0.,12.0,0.,12.0
1979-07-27 06:31:50.380 ,6,0,0.,12.0,0.,12.0,0.,12.0,0.,12.0
1979-07-27 06:32:02.380 ,5,1,0.,12.0,0.,12.0,0.,12.0,0.,12.0
1979-07-27 06:32:14.380 ,5,1,0.,12.0,0.,12.0,0.,12.0,0.,12.0
1979-07-27 06:32:26.380 ,5,0,0.,12.0,0.,12.0,0.,12.0,0.,12.0
1979-07-27 06:32:38.380 ,5,0,0.,12.0,0.,12.0,0.,12.0,0.,12.0
1979-07-27 06:32:50.380 ,4,1,0.,12.0,0.,12.0,0.,12.0,0.,12.0
1979-07-27 06:33:02.380 ,4,1,0.,12.0,0.,12.0,0.,12.0,0.,12.0
1979-07-27 06:33:14.380 ,4,0,0.,12.0,0.,12.0,0.,12.0,0.,12.0
1979-07-27 06:33:26.380 ,4,0,0.,12.0,0.,12.0,0.,12.0,0.,12.0
1979-07-27 06:33:38.380 ,0,0,0.,12.0,0.,12.0,0.,12.0,0.,12.0
1979-07-27 06:33:50.380 ,0,0,,0,,0,,0,,0
1979-07-27 06:34:02.380 ,0,0,,0,,0,,0,,0
1979-07-27 06:34:14.380 ,0,0,,0,,0,,0,,0
1979-07-27 06:34:02.380 ,3,0,0.,12.0,0.,12.0,0.,12.0,0.,12.0
1979-07-27 06:34:14.380 ,3,0,0.,12.0,0.,12.0,0.,12.0,0.,12.0
1979-07-27 06:34:26.380 ,2,1,0.,12.0,0.,12.0,0.,12.0,0.,12.0
1979-07-27 06:34:38.380 ,2,1,0.,12.0,0.,12.0,0.,12.0,0.,12.0
1979-07-27 06:34:50.380 ,2,0,0.,12.0,0.,12.0,0.,12.0,0.,12.0
1979-07-27 06:35:02.380 ,2,0,0.,12.0,0.,12.0,0.,12.0,0.,12.0
1979-07-27 06:35:14.380 ,1,1,0.,12.0,0.,12.0,0.,12.0,0.,12.0
1979-07-27 06:35:26.380 ,1,1,0.,12.0,0.,12.0,0.,12.0,0.,12.0
1979-07-27 06:35:38.380 ,1,0,0.,12.0,0.,12.0,0.,12.0,0.,12.0
1979-07-27 06:35:50.380 ,1,0,0.,12.0,0.,12.0,0.,12.0,0.,12.0
1979-07-27 06:36:02.380 ,0,1,0.,12.0,0.,12.0,0.,12.0,0.,12.0
1979-07-27 06:36:14.380 ,0,1,0.,12.0,0.,12.0,0.,12.0,0.,12.0
1979-07-27 06:36:26.380 ,0,0,0.,12.0,0.,12.0,0.,12.0,0.,12.0
1979-07-27 06:36:38.380 ,0,0,0.,12.0,0.,12.0,0.,12.0,0.,12.0
1979-07-27 06:36:50.380 ,0,1,0.,12.0,0.,12.0,0.,12.0,0.,12.0
1979-07-27 06:37:02.380 ,0,1,0.,12.0,0.,12.0,0.,12.0,0.,12.0
1979-07-27 06:37:14.380 ,0,0,0.,12.0,0.,12.0,0.,12.0,0.,12.0
1979-07-27 06:37:26.380 ,0,0,0.,12.0,0.,12.0,0.,12.0,0.,12.0
1979-07-27 06:37:38.380 ,1,1,0.,12.0,0.,12.0,0.,12.0,0.,12.0
1979-07-27 06:37:50.380 ,1,1,0.,12.0,0.,12.0,0.,12.0,0.,12.0
1979-07-27 06:38:02.380 ,1,0,0.,12.0,0.,12.0,0.,12.0,0.,12.0
1979-07-27 06:38:14.380 ,1,0,0.,12.0,0.,12.0,0.,12.0,0.,12.0
1979-07-27 06:38:26.380 ,2,1,0.,12.0,0.,12.0,0.,12.0,0.,12.0
1979-07-27 06:38:38.380 ,2,1,0.,12.0,0.,12.0,0.,12.0,0.,12.0
1979-07-27 06:38:50.380 ,2,0,0.,12.0,0.,12.0,0.,12.0,0.,12.0
1979-07-27 06:39:02.380 ,2,0,0.,12.0,0.,12.0,0.,12.0,0.,12.0
1979-07-27 06:39:14.380 ,3,1,0.,12.0,0.,12.0,0.,12.0,0.,12.0
1979-07-27 06:39:26.380 ,3,1,0.,12.0,0.,12.0,0.,12.0,0.,12.0
1979-07-27 06:39:38.380 ,3,0,0.,12.0,0.,12.0,0.,12.0,0.,12.0
1979-07-27 06:39:50.380 ,3,0,0.,12.0,0.,12.0,0.,12.0,0.,12.0
1979-07-27 06:40:02.380 ,4,1,0.,12.0,0.,12.0,0.,12.0,0.,12.0
1979-07-27 06:40:14.380 ,4,1,0.,12.0,0.,12.0,0.,12.0,0.,12.0
1979-07-27 06:40:26.380 ,4,0,0.,12.0,0.,12.0,0.,12.0,0.,12.0
1979-07-27 06:40:38.380 ,4,0,0.,12.0,0.,12.0,0.,12.0,0.,12.0
1979-07-27 06:40:50.380 ,5,1,0.,12.0,0.,12.0,0.,12.0,0.,12.0
1979-07-27 06:41:02.380 ,5,1,0.,12.0,0.,12.0,0.,12.0,0.,12.0
1979-07-27 06:41:14.380 ,5,0,0.,12.0,0.,12.0,0.,12.0,0.,12.0
1979-07-27 06:41:26.380 ,5,0,0.,12.0,0.,12.0,0.,12.0,0.,12.0
1979-07-27 06:41:38.380 ,6,1,0.,12.0,0.,12.0,0.,12.0,0.,12.0
1979-07-27 06:41:50.380 ,6,1,0.,12.0,0.,12.0,0.,12.0,0.,12.0
1979-07-27 06:42:02.380 ,6,0,0.,12.0,0.,12.0,0.,12.0,0.,12.0
1979-07-27 06:42:14.380 ,6,0,0.,12.0,0.,12.0,0.,12.0,0.,12.0
1979-07-27 06:42:26.380 ,7,0,0.,12.0,0.,12.0,0.,12.0,0.,12.0
1979-07-27 06:42:38.380 ,7,0,0.,12.0,0.,12.0,0.,12.0,0.,12.0
1979-07-27 06:42:50.380 ,7,0,0.,12.0,0.,12.0,0.,12.0,0.,12.0
1979-07-27 06:43:02.380 ,7,0,0.,12.0,0.,12.0,0.,12.0,0.,12.0
1979-07-27 06:43:14.380 ,4,1,0.,12.0,0.,12.0,0.,12.0,0.,12.0
1979-07-27 06:43:26.380 ,4,1,0.,12.0,0.,12.0,0.,12.0,0.,12.0
1979-07-27 06:43:38.380 ,0,1,0.,12.0,0.,12.0,0.,12.0,0.,12.0
1979-07-27 06:43:50.380 ,0,1,0.,12.0,0.,12.0,0.,12.0,0.,12.0
1979-07-27 06:44:02.380 ,3,1,0.,12.0,0.,12.0,0.,12.0,0.,12.0
1979-07-27 06:44:14.380 ,3,1,0.,12.0,0.,12.0,0.,12.0,0.,12.0
1979-07-27 06:44:26.380 ,7,1,0.,12.0,0.,12.0,0.,12.0,0.,12.0
1979-07-27 06:44:38.380 ,7,1,0.,12.0,0.,12.0,0.,12.0,0.,12.0
1979-07-27 06:44:50.380 ,4,1,0.,12.0,0.,12.0,0.,12.0,0.,12.0
1979-07-27 06:45:02.380 ,4,1,0.,12.0,0.,12.0,0.,12.0,0.,12.0
1979-07-27 06:45:14.380 ,0,1,0.,12.0,0.,12.0,0.,12.0,0.,12.0
1979-07-27 06:45:26.380 ,0,1,0.,12.0,0.,12.0,0.,12.0,0.,12.0
1979-07-27 06:45:38.380 ,3,1,0.,12.0,0.,12.0,0.,12.0,0.,12.0
1979-07-27 06:45:50.380 ,3,1,0.,12.0,0.,12.0,0.,12.0,0.,12.0
1979-07-27 06:46:02.380 ,7,1,0.,12.0,0.,12.0,0.,12.0,0.,12.0
1979-07-27 06:46:14.380 ,7,1,0.,12.0,0.,12.0,0.,12.0,0.,12.0
1979-07-27 06:46:26.380 ,4,1,0.,12.0,0.,12.0,0.,12.0,0.,12.0
1979-07-27 06:46:38.380 ,4,1,0.,12.0,0.,12.0,0.,12.0,0.,12.0
1979-07-27 06:46:50.380 ,0,1,0.,12.0,0.,12.0,0.,12.0,0.,12.0
1979-07-27 06:47:02.380 ,0,1,0.,12.0,0.,12.0,0.,12.0,0.,12.0
1979-07-27 06:47:14.380 ,3,1,0.,12.0,0.,12.0,0.,12.0,0.,12.0
1979-07-27 06:47:26.380 ,3,1,0.,12.0,0.,12.0,0.,12.0,0.,12.0
1979-07-27 06:47:38.380 ,0,0,0.,12.0,0.,12.0,0.,12.0,0.,12.0
1979-07-27 06:47:50.380 ,0,0,0.,12.0,0.,12.0,0.,12.0,0.,12.0
1979-07-27 06:48:02.380 ,0,0,0.,12.0,0.,12.0,0.,12.0,0.,12.0
1979-07-27 06:48:14.380 ,0,0,0.,12.0,0.,12.0,0.,12.0,0.,12.0
1979-07-27 06:48:26.380 ,0,1,0.,12.0,0.,12.0,0.,12.0,0.,12.0
1979-07-27 06:48:38.380 ,0,1,0.,12.0,0.,12.0,0.,12.0,0.,12.0
1979-07-27 06:48:50.380 ,3,1,0.,12.0,0.,12.0,0.,12.0,0.,12.0
1979-07-27 06:49:02.380 ,3,1,0.,12.0,0.,12.0,0.,12.0,0.,12.0
1979-07-27 06:49:14.380 ,7,1,0.,12.0,0.,12.0,0.,12.0,0.,12.0
1979-07-27 06:49:26.380 ,7,1,0.,12.0,0.,12.0,0.,12.0,0.,12.0
1979-07-27 06:49:38.380 ,4,1,0.,12.0,0.,12.0,0.,12.0,0.,12.0
1979-07-27 06:49:50.380 ,4,1,0.,12.0,0.,12.0,0.,12.0,0.,12.0
1979-07-27 06:50:02.380 ,0,1,0.,12.0,0.,12.0,0.,12.0,0.,12.0
1979-07-27 06:50:14.380 ,0,1,0.,12.0,0.,12.0,0.,12.0,0.,12.0
1979-07-27 06:50:26.380 ,3,1,0.,12.0,0.,12.0,0.,12.0,0.,12.0
1979-07-27 06:50:38.380 ,3,1,0.,12.0,0.,12.0,0.,12.0,0.,12.0
1979-07-27 06:50:50.380 ,7,1,0.,12.0,0.,12.0,0.,12.0,0.,12.0
1979-07-27 06:51:02.380 ,7,1,0.,12.0,0.,12.0,0.,12.0,0.,12.0
1979-07-27 06:51:14.380 ,4,1,0.,12.0,0.,12.0,0.,12.0,0.,12.0
1979-07-27 06:51:26.380 ,4,1,0.,12.0,0.,12.0,0.,12.0,0.,12.0
1979-07-27 06:51:38.380 ,0,1,0.,12.0,0.,12.0,0.,12.0,0.,12.0
1979-07-27 06:51:50.380 ,0,1,0.,12.0,0.,12.0,0.,12.0,0.,12.0
1979-07-27 06:52:02.380 ,3,1,0.,12.0,0.,12.0,0.,12.0,0.,12.0
1979-07-27 06:52:14.380 ,3,1,0.,12.0,0.,12.0,0.,12.0,0.,12.0
1979-07-27 06:52:26.380 ,7,1,0.,12.0,0.,12.0,0.,12.0,0.,12.0
1979-07-27 06:52:38.380 ,7,1,0.,12.0,0.,12.0,0.,12.0,0.,12.0
1979-07-27 06:52:50.380 ,4,1,0.,12.0,0.,12.0,0.,12.0,0.,12.0
1979-07-27 06:53:02.380 ,4,1,0.,12.0,0.,12.0,0.,12.0,0.,12.0
1979-07-27 06:53:14.380 ,0,1,0.,12.0,0.,12.0,0.,12.0,0.,12.0
1979-07-27 06:53:26.380 ,0,1,0.,12.0,0.,12.0,0.,12.0,0.,12.0
1979-07-27 06:53:38.380 ,0,0,0.,12.0,0.,12.0,0.,12.0,0.,12.0
1979-07-27 06:53:50.380 ,0,0,0.,12.0,0.,12.0,0.,12.0,0.,12.0
1979-07-27 06:54:02.380 ,0,0,0.,12.0,0.,12.0,0.,12.0,0.,12.0
1979-07-27 06:54:14.380 ,0,0,0.,12.0,0.,12.0,0.,12.0,0.,12.0
1979-07-27 06:54:26.380 ,5,1,0.,12.0,0.,12.0,0.,12.0,0.,12.0
1979-07-27 06:54:38.380 ,5,1,0.,12.0,0.,12.0,0.,12.0,0.,12.0
1979-07-27 06:54:50.380 ,5,0,0.,12.0,0.,12.0,0.,12.0,0.,12.0
1979-07-27 06:55:02.380 ,5,0,0.,12.0,0.,12.0,0.,12.0,0.,12.0
1979-07-27 06:55:14.380 ,4,1,0.,12.0,0.,12.0,0.,12.0,0.,12.0
1979-07-27 06:55:26.380 ,4,1,0.,12.0,0.,12.0,0.,12.0,0.,12.0
1979-07-27 06:55:38.380 ,4,0,0.,12.0,0.,12.0,0.,12.0,0.,12.0
1979-07-27 06:55:50.380 ,4,0,0.,12.0,0.,12.0,0.,12.0,0.,12.0
1979-07-27 06:56:02.380 ,3,1,0.,12.0,0.,12.0,0.,12.0,0.,12.0
1979-07-27 06:56:14.380 ,3,1,0.,12.0,0.,12.0,0.,12.0,0.,12.0
1979-07-27 06:56:26.380 ,3,0,0.,12.0,0.,12.0,0.,12.0,0.,12.0
1979-07-27 06:56:38.380 ,3,0,0.,12.0,0.,12.0,0.,12.0,0.,12.0
1979-07-27 06:56:50.370 ,2,1,0.,12.0,0.,12.0,0.,12.0,0.,12.0
1979-07-27 06:57:02.370 ,2,1,0.,12.0,0.,12.0,0.,12.0,0.,12.0
1979-07-27 06:57:14.370 ,2,0,0.,12.0,0.,12.0,0.,12.0,0.,12.0
1979-07-27 06:57:26.370 ,2,0,0.,12.0,0.,12.0,0.,12.0,0.,12.0
1979-07-27 06:57:38.370 ,1,1,0.,12.0,0.,12.0,0.,12.0,0.,12.0
1979-07-27 06:57:50.370 ,1,1,0.,12.0,0.,12.0,0.,12.0,0.,12.0
1979-07-27 06:58:02.370 ,1,0,0.,12.0,0.,12.0,0.,12.0,0.,12.0
1979-07-27 06:58:14.370 ,1,0,0.,12.0,0.,12.0,0.,12.0,0.,12.0
1979-07-27 06:58:26.370 ,0,1,0.,12.0,0.,12.0,0.,12.0,0.,12.0
1979-07-27 06:58:38.370 ,0,1,0.,12.0,0.,12.0,0.,12.0,0.,12.0
1979-07-27 06:58:50.370 ,0,0,0.,12.0,0.,12.0,0.,12.0,0.,12.0
1979-07-27 06:59:02.370 ,0,0,0.,12.0,0.,12.0,0.,12.0,0.,12.0
1979-07-27 06:59:14.370 ,0,1,0.,12.0,0.,12.0,0.,12.0,0.,12.0
1979-07-27 06:59:26.370 ,0,1,0.,12.0,0.,12.0,0.,12.0,0.,12.0
1979-07-27 06:59:38.370 ,0,0,0.,12.0,0.,12.0,0.,12.0,0.,12.0
1979-07-27 06:59:50.370 ,0,0,0.,12.0,0.,12.0,0.,12.0,0.,12.0
1979-07-27 07:00:02.370 ,1,1,0.,12.0,0.,12.0,0.,12.0,0.,12.0
1979-07-27 07:00:14.370 ,1,1,0.,12.0,0.,12.0,0.,12.0,0.,12.0
1979-07-27 07:00:26.370 ,1,0,0.,12.0,0.,12.0,0.,12.0,0.,12.0
1979-07-27 07:00:38.370 ,1,0,0.,12.0,0.,12.0,0.,12.0,0.,12.0
1979-07-27 07:00:50.370 ,2,1,0.,12.0,0.,12.0,0.,12.0,0.,12.0
1979-07-27 07:01:02.370 ,2,1,0.,12.0,0.,12.0,0.,12.0,0.,12.0
1979-07-27 07:01:14.370 ,2,0,0.,12.0,0.,12.0,0.,12.0,0.,12.0
1979-07-27 07:01:26.370 ,2,0,0.,12.0,0.,12.0,0.,12.0,0.,12.0
1979-07-27 07:01:38.370 ,3,1,0.,12.0,0.,12.0,0.,12.0,0.,12.0
1979-07-27 07:01:50.370 ,3,1,0.,12.0,0.,12.0,0.,12.0,0.,12.0
1979-07-27 07:02:02.370 ,3,0,0.,12.0,0.,12.0,0.,12.0,0.,12.0
1979-07-27 07:02:14.370 ,3,0,0.,12.0,0.,12.0,0.,12.0,0.,12.0
1979-07-27 07:02:26.370 ,4,1,0.,12.0,0.,12.0,0.,12.0,0.,12.0
1979-07-27 07:02:38.370 ,4,1,0.,12.0,0.,12.0,0.,12.0,0.,12.0
1979-07-27 07:02:50.370 ,4,0,0.,12.0,0.,12.0,0.,12.0,0.,12.0
1979-07-27 07:03:02.370 ,4,0,0.,12.0,0.,12.0,0.,12.0,0.,12.0
1979-07-27 07:03:14.370 ,5,1,0.,12.0,0.,12.0,0.,12.0,0.,12.0
1979-07-27 07:03:26.370 ,5,1,0.,12.0,0.,12.0,0.,12.0,0.,12.0
1979-07-27 07:03:38.370 ,5,0,0.,12.0,0.,12.0,0.,12.0,0.,12.0
1979-07-27 07:03:50.370 ,5,0,0.,12.0,0.,12.0,0.,12.0,0.,12.0
1979-07-27 07:04:02.370 ,6,1,0.,12.0,0.,12.0,0.,12.0,0.,12.0
1979-07-27 07:04:14.370 ,6,1,0.,12.0,0.,12.0,0.,12.0,0.,12.0
1979-07-27 07:04:26.370 ,6,0,0.,12.0,0.,12.0,0.,12.0,0.,12.0
1979-07-27 07:04:38.370 ,6,0,0.,12.0,0.,12.0,0.,12.0,0.,12.0
1979-07-27 07:04:50.370 ,7,1,0.,12.0,0.,12.0,0.,12.0,0.,12.0
1979-07-27 07:05:02.370 ,7,1,0.,12.0,0.,12.0,0.,12.0,0.,12.0
1979-07-27 07:05:14.370 ,7,0,0.,12.0,0.,12.0,0.,12.0,0.,12.0
1979-07-27 07:05:26.370 ,7,0,0.,12.0,0.,12.0,0.,12.0,0.,12.0
1979-07-27 07:05:38.370 ,7,1,0.,12.0,0.,12.0,0.,12.0,0.,12.0
1979-07-27 07:05:50.370 ,7,1,0.,12.0,0.,12.0,0.,12.0,0.,12.0
1979-07-27 07:06:02.370 ,7,0,0.,12.0,0.,12.0,0.,12.0,0.,12.0
1979-07-27 07:06:14.370 ,7,0,0.,12.0,0.,12.0,0.,12.0,0.,12.0
1979-07-27 07:06:26.370 ,6,1,0.,12.0,0.,12.0,0.,12.0,0.,12.0
1979-07-27 07:06:38.370 ,6,1,0.,12.0,0.,12.0,0.,12.0,0.,12.0
1979-07-27 07:06:50.370 ,6,0,0.,12.0,0.,12.0,0.,12.0,0.,12.0
1979-07-27 07:07:02.370 ,6,0,0.,12.0,0.,12.0,0.,12.0,0.,12.0
1979-07-27 07:07:14.370 ,5,1,0.,12.0,0.,12.0,0.,12.0,0.,12.0
1979-07-27 07:07:26.370 ,5,1,0.,12.0,0.,12.0,0.,12.0,0.,12.0
1979-07-27 07:07:38.370 ,5,0,0.,12.0,0.,12.0,0.,12.0,0.,12.0
1979-07-27 07:07:50.370 ,5,0,0.,12.0,0.,12.0,0.,12.0,0.,12.0
1979-07-27 07:08:02.370 ,4,1,0.,12.0,0.,12.0,0.,12.0,0.,12.0
1979-07-27 07:08:14.370 ,4,1,0.,12.0,0.,12.0,0.,12.0,0.,12.0
1979-07-27 07:08:26.370 ,4,0,0.,12.0,0.,12.0,0.,12.0,0.,12.0
1979-07-27 07:08:38.370 ,4,0,0.,12.0,0.,12.0,0.,12.0,0.,12.0
1979-07-27 07:08:50.370 ,3,1,0.,12.0,0.,12.0,0.,12.0,0.,12.0
1979-07-27 07:09:02.370 ,3,1,0.,12.0,0.,12.0,0.,12.0,0.,12.0
1979-07-27 07:09:14.370 ,3,0,0.,12.0,0.,12.0,0.,12.0,0.,12.0
1979-07-27 07:09:26.370 ,3,0,0.,12.0,0.,12.0,0.,12.0,0.,12.0
1979-07-27 07:09:38.370 ,2,1,0.,12.0,0.,12.0,0.,12.0,0.,12.0
1979-07-27 07:09:50.370 ,2,1,0.,12.0,0.,12.0,0.,12.0,0.,12.0
1979-07-27 07:10:02.370 ,2,0,0.,12.0,0.,12.0,0.,12.0,0.,12.0
1979-07-27 07:10:14.370 ,2,0,0.,12.0,0.,12.0,0.,12.0,0.,12.0
1979-07-27 07:10:26.370 ,1,1,0.,12.0,0.,12.0,0.,12.0,0.,12.0
1979-07-27 07:10:38.370 ,1,1,0.,12.0,0.,12.0,0.,12.0,0.,12.0
1979-07-27 07:10:50.370 ,1,0,0.,12.0,0.,12.0,0.,12.0,0.,12.0
1979-07-27 07:11:02.370 ,1,0,0.,12.0,0.,12.0,0.,12.0,0.,12.0
1979-07-27 07:11:14.370 ,0,1,0.,12.0,0.,12.0,0.,12.0,0.,12.0
1979-07-27 07:11:26.370 ,0,1,0.,12.0,0.,12.0,0.,12.0,0.,12.0
1979-07-27 07:11:38.370 ,0,0,0.,12.0,0.,12.0,0.,12.0,0.,12.0
1979-07-27 07:11:50.370 ,0,0,0.,12.0,0.,12.0,0.,12.0,0.,12.0
1979-07-27 07:12:02.370 ,0,1,0.,12.0,0.,12.0,0.,12.0,0.,12.0
1979-07-27 07:12:14.370 ,0,1,0.,12.0,0.,12.0,0.,12.0,0.,12.0
1979-07-27 07:12:26.370 ,0,0,0.,12.0,0.,12.0,0.,12.0,0.,12.0
1979-07-27 07:12:38.370 ,0,0,0.,12.0,0.,12.0,0.,12.0,0.,12.0
1979-07-27 07:12:50.370 ,1,1,0.,12.0,0.,12.0,0.,12.0,0.,12.0
1979-07-27 07:13:02.370 ,1,1,0.,12.0,0.,12.0,0.,12.0,0.,12.0
1979-07-27 07:13:14.370 ,1,0,0.,12.0,0.,12.0,0.,12.0,0.,12.0
1979-07-27 07:13:26.370 ,1,0,0.,12.0,0.,12.0,0.,12.0,0.,12.0
1979-07-27 07:13:38.370 ,2,1,0.,12.0,0.,12.0,0.,12.0,0.,12.0
1979-07-27 07:13:50.370 ,2,1,0.,12.0,0.,12.0,0.,12.0,0.,12.0
1979-07-27 07:14:02.370 ,2,0,0.,12.0,0.,12.0,0.,12.0,0.,12.0
1979-07-27 07:14:14.370 ,2,0,0.,12.0,0.,12.0,0.,12.0,0.,12.0
1979-07-27 07:14:26.370 ,3,1,0.,12.0,0.,12.0,0.,12.0,0.,12.0
1979-07-27 07:14:38.370 ,3,1,0.,12.0,0.,12.0,0.,12.0,0.,12.0
1979-07-27 07:14:50.370 ,3,0,0.,12.0,0.,12.0,0.,12.0,0.,12.0
1979-07-27 07:15:02.370 ,3,0,0.,12.0,0.,12.0,0.,12.0,0.,12.0
1979-07-27 07:15:14.370 ,4,1,0.,12.0,0.,12.0,0.,12.0,0.,12.0
1979-07-27 07:15:26.370 ,4,1,0.,12.0,0.,12.0,0.,12.0,0.,12.0
1979-07-27 07:15:38.370 ,4,0,0.,12.0,0.,12.0,0.,12.0,0.,12.0
1979-07-27 07:15:50.370 ,4,0,0.,12.0,0.,12.0,0.,12.0,0.,12.0
1979-07-27 07:16:02.370 ,5,1,0.,12.0,0.,12.0,0.,12.0,0.,12.0
1979-07-27 07:16:14.370 ,5,1,0.,12.0,0.,12.0,0.,12.0,0.,12.0
1979-07-27 07:16:26.370 ,5,0,0.,12.0,0.,12.0,0.,12.0,0.,12.0
1979-07-27 07:16:38.370 ,5,0,0.,12.0,0.,12.0,0.,12.0,0.,12.0
1979-07-27 07:16:50.370 ,6,1,0.,12.0,0.,12.0,0.,12.0,0.,12.0
1979-07-27 07:17:02.370 ,6,1,0.,12.0,0.,12.0,0.,12.0,0.,12.0
1979-07-27 07:17:14.370 ,6,0,0.,12.0,0.,12.0,0.,12.0,0.,12.0